QPF
0.08 0.09 0.09 0.09 0.05 0.08 0.14 0.18 0.14 0.16 0.16 0.12 0.11 0.08 0.07 0.06 0.04 0.03 0.06 0.06 0.03 0.03 0.03 0.03 0.03 0.03 0.03 0.03 0.03 0.04 0.04 0.05 0.05 0.03 0.03 0.03 0.04 0.04 0.03 0.03 0.02 0.01 0.01
0.10 0.10 0.10 0.12 0.11 0.15 0.18 0.23 0.23 0.24 0.19 0.16 0.11 0.11 0.10 0.08 0.06 0.05 0.08 0.13 0.09 0.04 0.03 0.04 0.04 0.04 0.04 0.04 0.04 0.04 0.05 0.05 0.06 0.04 0.03 0.03 0.03 0.03 0.03 0.03 0.03 0.02 0.01
0.12 0.12 0.12 0.14 0.19 0.21 0.25 0.26 0.28 0.29 0.27 0.24 0.21 0.20 0.15 0.12 0.10 0.10 0.10 0.13 0.12 0.11 0.09 0.07 0.07 0.05 0.05 0.05 0.05 0.05 0.04 0.05 0.05 0.04 0.03 0.02 0.02 0.02 0.02 0.02 0.03 0.02 0.01
0.14 0.16 0.13 0.14 0.20 0.23 0.24 0.23 0.25 0.26 0.25 0.28 0.32 0.25 0.20 0.20 0.15 0.14 0.13 0.13 0.14 0.14 0.17 0.15 0.10 0.07 0.06 0.05 0.06 0.06 0.05 0.04 0.03 0.03 0.03 0.02 0.02 0.02 0.02 0.02 0.02 0.02 0.01
0.09 0.12 0.12 0.14 0.16 0.18 0.18 0.16 0.27 0.25 0.23 0.25 0.27 0.28 0.24 0.21 0.19 0.17 0.17 0.17 0.19 0.16 0.11 0.12 0.10 0.08 0.06 0.05 0.05 0.06 0.06 0.04 0.03 0.02 0.03 0.03 0.02 0.02 0.01 0.01 0.01 0.01 0.01
0.06 0.08 0.09 0.10 0.12 0.12 0.13 0.14 0.15 0.17 0.17 0.18 0.19 0.21 0.23 0.21 0.23 0.20 0.19 0.19 0.17 0.13 0.09 0.06 0.10 0.08 0.05 0.05 0.05 0.05 0.05 0.05 0.03 0.03 0.03 0.04 0.04 0.03 0.02 0.01 0.01 0.01 0.01
0.02 0.03 0.04 0.05 0.05 0.06 0.07 0.08 0.10 0.10 0.10 0.14 0.13 0.11 0.12 0.14 0.11 0.10 0.11 0.13 0.09 0.07 0.05 0.06 0.08 0.11 0.11 0.08 0.06 0.05 0.05 0.05 0.05 0.04 0.04 0.04 0.04 0.04 0.03 0.02 0.02 0.01 0.01
0.01 0.01 0.01 0.02 0.02 0.02 0.02 0.03 0.05 0.05 0.05 0.09 0.09 0.09 0.07 0.07 0.06 0.06 0.06 0.06 0.04 0.03 0.04 0.06 0.07 0.11 0.11 0.15 0.15 0.07 0.05 0.06 0.07 0.06 0.05 0.04 0.03 0.03 0.03 0.03 0.02 0.02 0.01
0.00 0.00 0.00 0.00 0.00 0.00 0.01 0.02 0.03 0.03 0.04 0.05 0.08 0.09 0.07 0.05 0.06 0.07 0.07 0.04 0.04 0.04 0.03 0.04 0.06 0.09 0.09 0.11 0.14 0.12 0.07 0.05 0.06 0.08 0.08 0.06 0.04 0.04 0.04 0.04 0.04 0.03 0.02
0.00 0.00 0.00 0.00 0.00 0.00 0.00 0.01 0.01 0.02 0.03 0.03 0.05 0.07 0.07 0.08 0.08 0.05 0.05 0.05 0.07 0.07 0.05 0.04 0.04 0.08 0.11 0.14 0.15 0.14 0.12 0.07 0.05 0.06 0.08 0.07 0.06 0.05 0.04 0.05 0.07 0.06 0.04
0.00 0.00 0.00 0.00 0.00 0.00 0.00 0.00 0.01 0.01 0.02 0.02 0.03 0.04 0.06 0.08 0.08 0.07 0.05 0.07 0.09 0.08 0.08 0.08 0.08 0.10 0.12 0.15 0.17 0.15 0.18 0.11 0.06 0.05 0.05 0.06 0.06 0.06 0.06 0.07 0.10 0.12 0.11
0.00 0.00 0.00 0.00 0.00 0.00 0.00 0.00 0.01 0.01 0.02 0.02 0.03 0.04 0.05 0.05 0.05 0.07 0.05 0.06 0.09 0.11 0.11 0.12 0.12 0.11 0.11 0.15 0.16 0.18 0.20 0.15 0.10 0.07 0.04 0.05 0.06 0.07 0.08 0.10 0.13 0.15 0.16
0.00 0.01 0.01 0.02 0.02 0.01 0.01 0.01 0.01 0.01 0.02 0.03 0.03 0.03 0.04 0.04 0.05 0.07 0.07 0.07 0.09 0.12 0.14 0.14 0.12 0.11 0.09 0.13 0.18 0.21 0.17 0.13 0.11 0.09 0.08 0.07 0.08 0.08 0.09 0.11 0.14 0.16 0.18
0.02 0.03 0.03 0.04 0.03 0.02 0.02 0.02 0.01 0.01 0.02 0.03 0.02 0.04 0.04 0.03 0.05 0.06 0.06 0.08 0.09 0.11 0.14 0.15 0.14 0.10 0.10 0.12 0.14 0.18 0.18 0.15 0.11 0.08 0.06 0.06 0.07 0.09 0.10 0.12 0.12 0.13 0.14
0.05 0.05 0.05 0.05 0.04 0.03 0.03 0.02 0.02 0.02 0.03 0.03 0.02 0.03 0.03 0.04 0.05 0.06 0.07 0.09 0.11 0.11 0.11 0.14 0.14 0.12 0.11 0.11 0.14 0.14 0.13 0.12 0.10 0.07 0.05 0.05 0.05 0.06 0.07 0.09 0.10 0.10 0.10
0.09 0.07 0.07 0.06 0.05 0.04 0.03 0.03 0.02 0.02 0.02 0.03 0.03 0.02 0.03 0.04 0.05 0.06 0.07 0.09 0.11 0.14 0.13 0.12 0.13 0.15 0.17 0.12 0.12 0.13 0.13 0.14 0.12 0.08 0.05 0.04 0.04 0.05 0.06 0.08 0.08 0.09 0.10
0.12 0.11 0.10 0.09 0.08 0.06 0.04 0.04 0.03 0.03 0.03 0.02 0.02 0.03 0.04 0.05 0.06 0.06 0.07 0.09 0.11 0.14 0.13 0.11 0.12 0.16 0.20 0.19 0.16 0.15 0.13 0.12 0.11 0.10 0.06 0.04 0.03 0.04 0.05 0.05 0.05 0.06 0.07
0.10 0.11 0.11 0.10 0.09 0.08 0.06 0.04 0.03 0.02 0.02 0.02 0.03 0.04 0.04 0.05 0.06 0.06 0.07 0.08 0.11 0.13 0.12 0.10 0.09 0.11 0.14 0.17 0.17 0.17 0.13 0.08 0.06 0.08 0.07 0.05 0.04 0.03 0.03 0.03 0.04 0.05 0.07
0.08 0.10 0.10 0.10 0.09 0.08 0.07 0.05 0.03 0.02 0.02 0.02 0.02 0.04 0.05 0.06 0.07 0.08 0.09 0.10 0.11 0.13 0.13 0.10 0.09 0.10 0.12 0.13 0.13 0.12 0.09 0.06 0.04 0.04 0.05 0.05 0.05 0.04 0.04 0.03 0.03 0.03 0.03
0.06 0.08 0.10 0.09 0.08 0.08 0.07 0.06 0.04 0.03 0.02 0.02 0.02 0.04 0.04 0.06 0.07 0.08 0.09 0.11 0.12 0.13 0.11 0.10 0.10 0.09 0.11 0.12 0.12 0.09 0.06 0.05 0.05 0.03 0.04 0.04 0.04 0.03 0.03 0.02 0.02 0.01 0.02
0.05 0.07 0.09 0.09 0.09 0.08 0.06 0.05 0.04 0.03 0.03 0.02 0.02 0.03 0.03 0.04 0.05 0.07 0.08 0.10 0.11 0.11 0.10 0.09 0.10 0.10 0.10 0.12 0.12 0.10 0.07 0.05 0.06 0.05 0.05 0.04 0.03 0.02 0.02 0.01 0.01 0.01 0.01
0.06 0.07 0.07 0.08 0.09 0.08 0.06 0.04 0.04 0.04 0.03 0.03 0.03 0.03 0.03 0.03 0.03 0.04 0.06 0.08 0.09 0.10 0.08 0.08 0.07 0.09 0.11 0.11 0.11 0.10 0.08 0.06 0.06 0.06 0.05 0.05 0.04 0.04 0.03 0.01 0.01 0.01 0.01
0.06 0.06 0.07 0.08 0.09 0.10 0.07 0.04 0.03 0.03 0.04 0.04 0.04 0.03 0.03 0.02 0.03 0.03 0.04 0.05 0.06 0.09 0.10 0.09 0.08 0.08 0.09 0.10 0.10 0.10 0.09 0.06 0.05 0.05 0.05 0.06 0.05 0.04 0.02 0.01 0.01 0.01 0.00
0.06 0.06 0.05 0.07 0.09 0.11 0.10 0.07 0.04 0.03 0.03 0.04 0.05 0.05 0.03 0.02 0.04 0.05 0.05 0.06 0.07 0.09 0.10 0.09 0.10 0.11 0.10 0.09 0.09 0.10 0.10 0.07 0.06 0.04 0.04 0.05 0.05 0.03 0.01 0.01 0.00 0.00 0.00
0.06 0.06 0.06 0.07 0.09 0.11 0.10 0.09 0.08 0.06 0.06 0.05 0.05 0.05 0.04 0.03 0.05 0.06 0.06 0.07 0.08 0.10 0.14 0.15 0.13 0.13 0.13 0.11 0.09 0.09 0.09 0.08 0.09 0.08 0.05 0.04 0.03 0.02 0.02 0.01 0.00 0.00 0.00
0.07 0.07 0.07 0.08 0.10 0.12 0.11 0.09 0.09 0.09 0.10 0.10 0.09 0.05 0.05 0.05 0.05 0.05 0.06 0.07 0.08 0.09 0.10 0.13 0.14 0.13 0.13 0.12 0.10 0.08 0.07 0.07 0.08 0.07 0.05 0.04 0.03 0.02 0.02 0.01 0.01 0.00 0.00
MSLP
1009.86 1009.97 1010.01 1010.02 1010.04 1010.10 1010.21 1010.37 1010.56 1010.75 1010.90 1010.99 1011.02 1011.00 1010.96 1010.93 1010.94 1011.01 1011.13 1011.31 1011.51 1011.74 1011.96 1012.18 1012.40 1012.61 1012.84 1013.09 1013.35 1013.62 1013.91 1014.22 1014.54 1014.87 1015.24 1015.63 1016.05 1016.49 1016.93 1017.36 1017.76 1018.11 1018.41
1009.67 1009.81 1009.89 1009.93 1009.94 1009.97 1010.03 1010.12 1010.23 1010.34 1010.44 1010.51 1010.55 1010.57 1010.57 1010.59 1010.64 1010.72 1010.84 1011.00 1011.17 1011.35 1011.54 1011.72 1011.91 1012.10 1012.31 1012.53 1012.76 1013.01 1013.28 1013.55 1013.85 1014.18 1014.54 1014.95 1015.39 1015.85 1016.33 1016.79 1017.23 1017.62 1017.96
1009.64 1009.81 1009.92 1009.97 1009.98 1009.97 1009.98 1009.99 1010.03 1010.07 1010.12 1010.17 1010.21 1010.24 1010.27 1010.31 1010.36 1010.43 1010.52 1010.63 1010.74 1010.87 1011.00 1011.15 1011.31 1011.49 1011.69 1011.90 1012.13 1012.37 1012.61 1012.87 1013.15 1013.46 1013.81 1014.21 1014.66 1015.14 1015.64 1016.14 1016.62 1017.05 1017.45
1009.68 1009.87 1010.00 1010.06 1010.07 1010.04 1010.00 1009.96 1009.93 1009.91 1009.92 1009.94 1009.97 1010.00 1010.03 1010.06 1010.09 1010.12 1010.15 1010.18 1010.21 1010.26 1010.33 1010.44 1010.57 1010.75 1010.96 1011.19 1011.43 1011.67 1011.92 1012.16 1012.43 1012.72 1013.05 1013.44 1013.88 1014.37 1014.89 1015.42 1015.94 1016.42 1016.86
1009.70 1009.90 1010.05 1010.13 1010.14 1010.11 1010.04 1009.96 1009.89 1009.83 1009.80 1009.79 1009.79 1009.81 1009.82 1009.82 1009.80 1009.76 1009.71 1009.64 1009.58 1009.54 1009.54 1009.60 1009.71 1009.89 1010.11 1010.37 1010.64 1010.91 1011.17 1011.42 1011.68 1011.97 1012.29 1012.66 1013.10 1013.58 1014.11 1014.66 1015.20 1015.72 1016.21
1009.63 1009.84 1010.01 1010.11 1010.14 1010.12 1010.05 1009.96 1009.87 1009.79 1009.72 1009.69 1009.67 1009.65 1009.63 1009.58 1009.50 1009.38 1009.22 1009.05 1008.88 1008.75 1008.67 1008.67 1008.75 1008.92 1009.16 1009.45 1009.75 1010.06 1010.36 1010.63 1010.91 1011.19 1011.51 1011.88 1012.30 1012.78 1013.31 1013.87 1014.43 1014.98 1015.51
1009.44 1009.66 1009.85 1009.98 1010.06 1010.07 1010.03 1009.95 1009.86 1009.77 1009.69 1009.63 1009.58 1009.53 1009.47 1009.37 1009.21 1009.00 1008.74 1008.46 1008.18 1007.94 1007.77 1007.70 1007.74 1007.88 1008.13 1008.43 1008.77 1009.12 1009.46 1009.78 1010.09 1010.39 1010.72 1011.09 1011.52 1011.99 1012.52 1013.07 1013.64 1014.20 1014.75
1009.16 1009.39 1009.60 1009.78 1009.90 1009.97 1009.97 1009.93 1009.85 1009.76 1009.68 1009.60 1009.53 1009.45 1009.34 1009.19 1008.97 1008.68 1008.33 1007.94 1007.55 1007.20 1006.93 1006.77 1006.74 1006.84 1007.06 1007.37 1007.73 1008.12 1008.50 1008.86 1009.21 1009.56 1009.92 1010.30 1010.74 1011.21 1011.73 1012.28 1012.85 1013.41 1013.96
1008.85 1009.07 1009.31 1009.53 1009.71 1009.83 1009.88 1009.88 1009.84 1009.77 1009.68 1009.60 1009.51 1009.40 1009.26 1009.07 1008.80 1008.45 1008.03 1007.55 1007.07 1006.61 1006.23 1005.97 1005.84 1005.87 1006.04 1006.32 1006.67 1007.07 1007.49 1007.90 1008.30 1008.69 1009.09 1009.52 1009.97 1010.45 1010.97 1011.52 1012.07 1012.62 1013.16
1008.57 1008.78 1009.03 1009.28 1009.50 1009.67 1009.77 1009.81 1009.80 1009.75 1009.67 1009.58 1009.49 1009.37 1009.22 1009.01 1008.72 1008.34 1007.87 1007.34 1006.77 1006.22 1005.74 1005.36 1005.12 1005.05 1005.13 1005.35 1005.67 1006.06 1006.49 1006.94 1007.38 1007.83 1008.28 1008.75 1009.23 1009.73 1010.25 1010.79 1011.33 1011.86 1012.38
1008.36 1008.54 1008.78 1009.03 1009.28 1009.48 1009.62 1009.69 1009.70 1009.66 1009.59 1009.52 1009.43 1009.33 1009.19 1008.99 1008.72 1008.34 1007.86 1007.29 1006.67 1006.05 1005.46 1004.97 1004.62 1004.43 1004.40 1004.53 1004.79 1005.15 1005.58 1006.04 1006.53 1007.02 1007.52 1008.03 1008.54 1009.06 1009.59 1010.12 1010.65 1011.16 1011.65
1008.23 1008.36 1008.56 1008.79 1009.02 1009.22 1009.37 1009.45 1009.47 1009.45 1009.40 1009.34 1009.28 1009.21 1009.11 1008.96 1008.72 1008.38 1007.92 1007.36 1006.72 1006.05 1005.39 1004.81 1004.34 1004.03 1003.90 1003.93 1004.12 1004.43 1004.83 1005.30 1005.81 1006.34 1006.88 1007.42 1007.96 1008.50 1009.03 1009.55 1010.06 1010.56 1011.03
1008.14 1008.20 1008.33 1008.51 1008.71 1008.88 1009.00 1009.07 1009.09 1009.08 1009.04 1009.01 1008.98 1008.96 1008.92 1008.84 1008.67 1008.39 1007.99 1007.46 1006.83 1006.14 1005.44 1004.79 1004.25 1003.85 1003.62 1003.57 1003.68 1003.95 1004.33 1004.79 1005.31 1005.86 1006.42 1006.98 1007.53 1008.08 1008.61 1009.12 1009.62 1010.09 1010.54
1008.06 1008.03 1008.08 1008.18 1008.30 1008.41 1008.49 1008.54 1008.54 1008.52 1008.51 1008.50 1008.52 1008.56 1008.59 1008.58 1008.49 1008.29 1007.95 1007.48 1006.89 1006.22 1005.52 1004.84 1004.26 1003.81 1003.53 1003.43 1003.50 1003.73 1004.09 1004.54 1005.06 1005.62 1006.18 1006.75 1007.31 1007.85 1008.37 1008.87 1009.34 1009.79 1010.23
1007.94 1007.81 1007.76 1007.77 1007.80 1007.84 1007.86 1007.86 1007.84 1007.82 1007.82 1007.84 1007.90 1007.99 1008.08 1008.14 1008.12 1007.99 1007.73 1007.32 1006.79 1006.16 1005.49 1004.84 1004.27 1003.83 1003.55 1003.45 1003.53 1003.76 1004.11 1004.57 1005.09 1005.64 1006.21 1006.77 1007.31 1007.84 1008.34 1008.81 1009.27 1009.70 1010.11
1007.76 1007.54 1007.40 1007.31 1007.25 1007.21 1007.16 1007.11 1007.06 1007.03 1007.03 1007.08 1007.17 1007.30 1007.42 1007.53 1007.55 1007.47 1007.25 1006.90 1006.42 1005.86 1005.26 1004.69 1004.19 1003.82 1003.61 1003.56 1003.69 1003.96 1004.36 1004.83 1005.37 1005.92 1006.48 1007.02 1007.55 1008.04 1008.52 1008.97 1009.39 1009.80 1010.19
1007.52 1007.24 1007.02 1006.85 1006.71 1006.59 1006.48 1006.38 1006.30 1006.26 1006.25 1006.30 1006.40 1006.54 1006.67 1006.77 1006.80 1006.72 1006.51 1006.19 1005.76 1005.26 1004.75 1004.28 1003.91 1003.67 1003.58 1003.66 1003.90 1004.27 1004.73 1005.26 1005.82 1006.38 1006.94 1007.47 1007.97 1008.44 1008.89 1009.31 1009.71 1010.10 1010.47
1007.26 1006.94 1006.67 1006.44 1006.23 1006.05 1005.89 1005.75 1005.64 1005.58 1005.57 1005.61 1005.69 1005.79 1005.89 1005.94 1005.92 1005.80 1005.56 1005.23 1004.82 1004.39 1003.97 1003.63 1003.41 1003.34 1003.43 1003.68 1004.07 1004.57 1005.13 1005.74 1006.34 1006.94 1007.49 1008.02 1008.50 1008.95 1009.38 1009.78 1010.17 1010.53 1010.88
1006.99 1006.67 1006.37 1006.10 1005.86 1005.63 1005.44 1005.27 1005.14 1005.06 1005.04 1005.05 1005.10 1005.14 1005.17 1005.13 1005.01 1004.80 1004.49 1004.12 1003.71 1003.32 1003.00 1002.79 1002.73 1002.85 1003.14 1003.58 1004.15 1004.79 1005.49 1006.18 1006.85 1007.48 1008.05 1008.58 1009.06 1009.50 1009.92 1010.32 1010.69 1011.05 1011.38
1006.73 1006.42 1006.13 1005.84 1005.58 1005.33 1005.11 1004.93 1004.80 1004.71 1004.67 1004.66 1004.66 1004.63 1004.56 1004.41 1004.17 1003.84 1003.43 1002.99 1002.56 1002.19 1001.95 1001.86 1001.97 1002.27 1002.75 1003.39 1004.13 1004.93 1005.74 1006.52 1007.26 1007.92 1008.52 1009.06 1009.55 1010.01 1010.43 1010.83 1011.21 1011.57 1011.90
1006.45 1006.17 1005.89 1005.61 1005.34 1005.09 1004.87 1004.69 1004.56 1004.48 1004.43 1004.41 1004.36 1004.27 1004.11 1003.85 1003.48 1003.03 1002.52 1002.00 1001.54 1001.18 1000.99 1001.01 1001.25 1001.72 1002.37 1003.17 1004.05 1004.98 1005.89 1006.75 1007.53 1008.23 1008.85 1009.41 1009.92 1010.40 1010.84 1011.27 1011.66 1012.03 1012.36
1006.12 1005.88 1005.61 1005.34 1005.07 1004.82 1004.61 1004.46 1004.35 1004.30 1004.27 1004.25 1004.19 1004.05 1003.82 1003.47 1003.01 1002.46 1001.86 1001.29 1000.79 1000.45 1000.31 1000.40 1000.75 1001.33 1002.11 1003.01 1004.00 1005.00 1005.96 1006.86 1007.66 1008.38 1009.01 1009.59 1010.13 1010.63 1011.11 1011.57 1011.99 1012.38 1012.72
1005.71 1005.48 1005.23 1004.96 1004.70 1004.47 1004.28 1004.16 1004.10 1004.09 1004.11 1004.12 1004.08 1003.95 1003.69 1003.31 1002.79 1002.19 1001.55 1000.94 1000.44 1000.12 1000.01 1000.17 1000.58 1001.23 1002.07 1003.03 1004.04 1005.06 1006.02 1006.91 1007.70 1008.40 1009.03 1009.61 1010.16 1010.69 1011.21 1011.71 1012.17 1012.58 1012.94
1005.20 1004.97 1004.72 1004.45 1004.19 1003.98 1003.83 1003.75 1003.75 1003.82 1003.91 1003.99 1004.01 1003.92 1003.70 1003.33 1002.83 1002.23 1001.61 1001.02 1000.54 1000.25 1000.18 1000.38 1000.82 1001.50 1002.33 1003.28 1004.26 1005.23 1006.13 1006.95 1007.68 1008.33 1008.93 1009.50 1010.05 1010.61 1011.16 1011.69 1012.19 1012.64 1013.02
1004.60 1004.36 1004.10 1003.82 1003.57 1003.38 1003.27 1003.25 1003.33 1003.48 1003.67 1003.84 1003.95 1003.95 1003.80 1003.51 1003.08 1002.55 1001.99 1001.46 1001.05 1000.81 1000.79 1001.01 1001.46 1002.11 1002.90 1003.78 1004.67 1005.53 1006.32 1007.03 1007.67 1008.24 1008.78 1009.32 1009.86 1010.42 1011.00 1011.56 1012.10 1012.57 1012.98
1003.96 1003.70 1003.42 1003.15 1002.91 1002.75 1002.68 1002.73 1002.88 1003.12 1003.41 1003.68 1003.90 1004.00 1003.97 1003.79 1003.47 1003.05 1002.59 1002.17 1001.85 1001.68 1001.71 1001.95 1002.39 1003.00 1003.71 1004.47 1005.23 1005.95 1006.60 1007.18 1007.69 1008.17 1008.64 1009.12 1009.64 1010.20 1010.78 1011.37 1011.93 1012.43 1012.85
Thickness
5780 5779 5776 5774 5772 5771 5769 5766 5765 5763 5761 5761 5759 5760 5761 5763 5764 5765 5764 5764 5763 5762 5761 5759 5758 5757 5755 5754 5754 5753 5752 5750 5749 5747 5745 5743 5741 5740 5738 5737 5735 5733 5732
5777 5773 5771 5768 5767 5765 5763 5761 5759 5757 5756 5755 5754 5755 5756 5757 5760 5760 5759 5758 5758 5759 5758 5758 5756 5755 5754 5753 5753 5752 5752 5751 5750 5748 5746 5745 5743 5741 5740 5738 5736 5734 5733
5772 5768 5765 5763 5762 5761 5759 5756 5755 5753 5751 5750 5749 5750 5751 5752 5753 5754 5754 5753 5752 5753 5754 5754 5754 5753 5752 5752 5752 5751 5751 5751 5750 5749 5748 5746 5745 5743 5741 5739 5737 5735 5734
5766 5763 5760 5759 5759 5757 5755 5752 5750 5748 5746 5745 5744 5745 5747 5748 5749 5749 5749 5749 5749 5750 5749 5750 5750 5750 5750 5750 5750 5750 5750 5750 5749 5749 5748 5747 5745 5744 5742 5740 5739 5737 5735
5763 5760 5756 5756 5755 5753 5751 5750 5749 5745 5743 5741 5741 5743 5744 5744 5745 5746 5746 5746 5747 5747 5747 5747 5748 5749 5748 5748 5748 5748 5748 5749 5749 5749 5748 5747 5746 5744 5743 5741 5739 5738 5736
5757 5754 5752 5751 5750 5748 5747 5745 5743 5743 5741 5740 5740 5742 5742 5743 5743 5743 5743 5745 5745 5745 5745 5746 5746 5747 5747 5747 5747 5747 5747 5748 5748 5748 5747 5746 5745 5744 5743 5741 5740 5738 5737
5752 5749 5747 5745 5745 5743 5742 5741 5740 5738 5737 5739 5735 5734 5739 5743 5744 5744 5743 5743 5743 5744 5745 5745 5745 5745 5745 5746 5746 5746 5746 5747 5747 5747 5746 5745 5744 5744 5743 5741 5740 5738 5737
5748 5746 5742 5740 5739 5737 5737 5737 5736 5733 5733 5735 5730 5726 5726 5733 5738 5744 5743 5741 5741 5742 5742 5744 5744 5744 5743 5744 5743 5743 5744 5744 5745 5745 5744 5744 5743 5742 5741 5740 5739 5738 5737
5744 5741 5738 5736 5734 5733 5732 5731 5731 5728 5726 5729 5728 5722 5718 5720 5727 5736 5739 5740 5740 5739 5741 5742 5744 5744 5744 5743 5742 5741 5742 5743 5743 5743 5742 5742 5741 5741 5740 5739 5738 5738 5736
5740 5738 5735 5733 5730 5729 5727 5727 5728 5724 5722 5721 5723 5724 5723 5721 5715 5720 5728 5734 5736 5736 5737 5739 5741 5742 5742 5741 5740 5740 5739 5739 5740 5740 5740 5740 5739 5739 5738 5737 5737 5736 5735
5736 5735 5733 5730 5727 5724 5724 5723 5721 5720 5719 5717 5717 5718 5718 5717 5716 5712 5714 5722 5728 5733 5735 5735 5736 5737 5738 5739 5738 5736 5735 5735 5736 5737 5737 5737 5737 5737 5736 5736 5735 5734 5733
5730 5730 5729 5726 5723 5721 5719 5718 5717 5715 5714 5714 5713 5712 5711 5710 5710 5710 5710 5713 5717 5724 5729 5731 5732 5733 5734 5734 5732 5733 5731 5730 5732 5733 5734 5734 5734 5734 5734 5733 5733 5732 5731
5721 5723 5723 5720 5718 5716 5714 5713 5712 5710 5710 5709 5709 5708 5709 5709 5709 5707 5706 5707 5710 5716 5721 5724 5727 5728 5729 5728 5728 5728 5727 5726 5727 5729 5729 5729 5730 5731 5731 5730 5730 5729 5728
5712 5714 5714 5712 5711 5710 5708 5708 5707 5707 5707 5706 5706 5705 5705 5705 5705 5704 5703 5701 5701 5705 5709 5713 5718 5720 5721 5722 5722 5721 5721 5721 5722 5723 5723 5723 5724 5725 5726 5726 5725 5724 5724
5702 5704 5705 5704 5704 5703 5702 5701 5700 5701 5702 5701 5701 5702 5701 5702 5703 5702 5701 5699 5694 5693 5698 5704 5706 5711 5712 5713 5714 5714 5714 5714 5714 5715 5715 5716 5717 5718 5719 5719 5718 5718 5717
5689 5691 5693 5694 5695 5695 5695 5694 5693 5695 5696 5696 5696 5696 5696 5697 5698 5698 5697 5697 5695 5692 5692 5696 5698 5701 5702 5704 5705 5706 5706 5706 5706 5706 5707 5708 5708 5709 5710 5710 5710 5709 5709
5675 5678 5681 5683 5684 5686 5687 5687 5687 5688 5689 5690 5690 5691 5692 5692 5692 5692 5692 5692 5691 5689 5686 5688 5690 5692 5692 5693 5694 5695 5695 5695 5695 5696 5697 5698 5699 5699 5699 5699 5700 5699 5699
5661 5665 5669 5671 5674 5677 5678 5679 5680 5682 5682 5683 5684 5684 5686 5687 5687 5687 5686 5686 5686 5685 5682 5679 5680 5681 5682 5684 5684 5684 5684 5684 5684 5685 5686 5687 5688 5688 5688 5688 5689 5689 5689
5646 5650 5654 5657 5661 5665 5668 5671 5672 5674 5675 5676 5677 5678 5679 5680 5680 5681 5681 5681 5681 5680 5678 5674 5673 5673 5673 5674 5673 5673 5673 5673 5673 5673 5674 5675 5676 5676 5677 5677 5678 5677 5678
5630 5634 5638 5642 5647 5652 5656 5660 5663 5665 5667 5668 5669 5671 5672 5674 5674 5675 5675 5675 5675 5673 5671 5669 5666 5665 5664 5665 5664 5663 5662 5662 5663 5664 5663 5663 5664 5664 5665 5666 5667 5667 5667
5614 5618 5621 5626 5632 5637 5644 5648 5651 5655 5657 5659 5660 5662 5664 5666 5667 5668 5670 5670 5669 5667 5665 5663 5660 5658 5657 5657 5656 5655 5654 5653 5652 5653 5653 5653 5653 5653 5653 5654 5655 5656 5657
5594 5598 5602 5607 5614 5622 5628 5631 5636 5641 5645 5648 5650 5652 5655 5657 5659 5661 5662 5663 5663 5662 5661 5658 5655 5653 5652 5652 5650 5649 5648 5646 5642 5643 5645 5643 5646 5645 5644 5644 5644 5645 5646
5576 5579 5583 5588 5595 5602 5609 5614 5621 5627 5632 5636 5640 5642 5646 5648 5650 5652 5653 5654 5655 5655 5656 5655 5651 5649 5647 5647 5645 5642 5642 5641 5639 5639 5639 5636 5637 5636 5635 5634 5635 5636 5638
5557 5560 5565 5571 5578 5585 5591 5597 5605 5612 5619 5625 5629 5632 5635 5637 5641 5642 5644 5644 5645 5646 5647 5647 5646 5644 5642 5641 5640 5639 5636 5634 5633 5633 5634 5629 5628 5627 5627 5625 5627 5628 5629
5545 5548 5552 5558 5564 5570 5576 5581 5588 5597 5606 5612 5618 5621 5624 5627 5629 5632 5634 5634 5634 5634 5635 5636 5635 5634 5633 5633 5633 5631 5629 5627 5623 5622 5625 5623 5621 5620 5619 5618 5619 5620 5622
5539 5541 5545 5549 5554 5559 5563 5568 5573 5584 5592 5599 5605 5609 5613 5617 5619 5622 5624 5624 5624 5624 5625 5625 5624 5623 5623 5623 5624 5625 5625 5622 5619 5616 5619 5619 5617 5617 5614 5614 5615 5615 5615